Regional Weather Roundup
Issued by NWS Jackson, KY

Home | Current Version | Previous Version | Graphics & Text | Print | Product List | Glossary On
Versions: 1 2 3 4 5 6 7 8 9 10 11 12 13 14 15 16 17 18 19 20 21 22 23 24 25 26 27 28 29 30 31 32 33 34 35 36 37 38 39 40 41 42 43 44 45 46 47 48 49 50
000
ASUS43 KJKL 281610
RWRJKL

EAST KENTUCKY HOURLY WEATHER ROUNDUP
NATIONAL WEATHER SERVICE JACKSON KY
1100 AM EST SUN DEC 28 2014

NOTE: "FAIR" INDICATES FEW OR NO CLOUDS BELOW 12,000 FEET WITH
NO SIGNIFICANT WEATHER AND/OR OBSTRUCTIONS TO VISIBILITY.

* THESE REPORTS ARE NOT UNDER NWS QUALITY CONTROL AND MAY NOT
  REPORT WEATHER SUCH AS PRECIPITATION AND FOG.

KYZ079-080-083-085-087-088-110-112-115-119-120-281700
...EASTERN KENTUCKY...

CITY           SKY/WX    TMP DP  RH WIND       PRES   REMARKS
JACKSON        LGT RAIN  45  43  93 NW7       30.10R
LONDON         LGT RAIN  45  41  86 NW6       30.11R
SOMERSET*      LGT RAIN  41  41 100 CALM      30.15R
MONTICELLO*    CLOUDY    44  42  93 N6        30.16S
MIDDLESBORO*   DRIZZLE   49  49 100 CALM      30.10F
HARLAN APT*    CLOUDY    46  46 100 SW3       30.09S
HAZARD APT*    LGT RAIN  48  48 100 CALM      30.10S
BLACK MTN*       N/A     43  43 100 NW1         N/A
PIKEVILLE APT* LGT RAIN  45  45 100 CALM      30.10S VSB 0
BIG SANDY*     RAIN      47  46  99 W5        30.10R
MOREHEAD APT*  CLOUDY    39  39 100 NW5       30.14S FOG
$$

KYZ035-036-041-042-044-050-067-078-099-281700
...CENTRAL KENTUCKY...

CITY           SKY/WX    TMP DP  RH WIND       PRES   REMARKS
MT STERLING*   CLOUDY    37  36  93 N5        30.15F WCI  34
FLEMING/MASON* DRIZZLE   37  37 100 N5        30.15S WCI  34
DANVILLE*      CLOUDY    37  37 100 N7        30.16S WCI  32
RICHMOND*      CLOUDY    39  37  93 NW6       30.14S WCI  35
LEXINGTON      CLOUDY    37  37 100 NW6       30.15R FOG     WCI  32
FRANKFORT      CLOUDY    37  35  92 NW6       30.15S WCI  32
$$

KYZ091>093-OHZ055-061-077-WVZ005-015-034-035-042-281700
...SOUTHERN OHIO/WEST VIRGINIA...

CITY           SKY/WX    TMP DP  RH WIND       PRES   REMARKS
COVINGTON      CLOUDY    34  28  79 N12       30.15F HAZE    WCI  25
COLUMBUS       CLOUDY    36  36 100 NW5       30.13R WCI  32
DAYTON         CLOUDY    35  30  82 NW9       30.16R WCI  28
WILMINGTON     CLOUDY    34  28  79 NW9       30.13F WCI  27
HUNTINGTON     CLOUDY    41  40  96 NW8       30.11S
CHARLESTON     CLOUDY    48  46  93 W6        30.07F
PINEVILLE*     RAIN      48  48 100 MISG      30.13S
BECKLEY        LGT RAIN  45  43  93 SW3       30.06F
BLUEFIELD      LGT RAIN  48  44  86 W9        30.08R
$$

VAZ002-007-008-TNZ017-027-036-066-071-281700
...SOUTHWEST VIRGINIA/EAST TENNESSEE...

CITY           SKY/WX    TMP DP  RH WIND       PRES   REMARKS
WISE*          DRIZZLE   46  46 100 CALM      30.09S
JONESVILLE*    LGT RAIN  46  46 100 CALM      30.11F
ABINGDON*      DRIZZLE   47  44  88 CALM      30.09F
BRISTOL        LGT RAIN  47  44  90 N3        30.09F FOG
KNOXVILLE      LGT RAIN  48  47  96 SE3       30.10S FOG
OAK RIDGE      LGT RAIN  53  51  93 CALM      30.11R
CROSSVILLE     CLOUDY    49  45  86 N3        30.10F
NASHVILLE      LGT RAIN  41  39  93 N5        30.17F
$$

...KEY TO REMARKS...
VSB - VISIBILITY IN MILES
WCI - WIND CHILL INDEX
HX  - HEAT INDEX

$$



USA.gov is the U.S. government's official web portal to all federal, state and local government web resources and services.